User: anonymous   Login
Location: Gipe Farm
(40.9466°N, 95.5370°W)
Time: 21:30:59
(UTC-05:00)
Language:

Cosmos 1842 - Orbit

View from above orbital plane
View from above orbital plane
View from above satellite
View from above satellite

Ground track
Ground track

The orbit data is extracted from the following two-line orbital elements,

1 17911U 87038A   17085.91027696 +.00000671 +00000-0 +38113-4 0  9990
2 17911 082.5213 274.0133 0011963 164.8266 195.3326 15.11168828629080
Epoch (UTC): 26 March 2017 21:50:47
Eccentricity: 0.0011963
inclination: 82.5213°
perigee height: 524 km
apogee height: 541 km
right ascension of ascending node: 274.0133°
argument of perigee: 164.8266°
revolutions per day: 15.11168828
mean anomaly at epoch: 195.3326°
orbit number at epoch: 62908

The dashed part of the orbit path shows where the satellite is in the earth's shadow,  

DLR